Torna al catalogo

STARLINK-30303

AttivoComunicazioniVLEO
NORAD 57677·PAYLOAD·🇺🇸 United States

Lanciato Aug 22, 2023 da Vandenberg Space Force Base

Loading…

Prossimi Passaggi (prossime 24 ore)

TLE

AggiornatoSource: CelesTrak SupGP

Epoca: Sep 15, 2026, 02:01 UTC

1 57677C 23124Q   26258.08451389 -.00020923  00000+0 -61832-3 0  2583
2 57677  53.1593  44.7791 0001255  88.1688  61.6354 15.34392915    12

Traccia STARLINK-30303 in tempo reale con AllMySat

Download on the App Store